Temperature
8 8 8 8 8 8 8 8 9 9 9 9 9 9 9 9 9 9 9 9 9 9 9 9 9 9 9 9 9 9 9 9 9 9 10 10 10 10 10 10 10 10 10
8 8 7 7 7 7 7 8 8 8 8 8 8 8 8 8 8 8 8 8 8 8 8 8 8 8 8 8 9 9 9 9 9 9 9 9 9 9 9 9 9 9 9
7 7 7 7 7 7 7 7 7 7 7 7 7 7 7 7 7 8 8 7 7 7 8 8 8 8 8 8 8 8 8 8 8 8 8 8 8 8 8 8 8 8 8
6 6 6 6 6 6 6 6 6 6 6 6 6 6 6 6 7 7 7 7 7 7 7 7 7 7 7 7 7 7 7 8 8 7 7 7 8 8 8 8 8 8 8
6 6 5 5 5 5 5 5 5 5 5 5 6 6 6 6 6 6 6 6 6 6 6 6 6 6 6 7 7 7 7 7 7 7 7 7 7 7 7 7 7 7 7
5 5 5 5 5 5 5 5 5 5 5 5 5 5 5 5 5 5 5 5 5 5 5 5 5 6 6 6 6 6 6 6 6 6 6 6 6 6 6 6 7 7 7
5 4 4 4 4 4 4 4 4 4 4 4 4 4 4 4 4 4 4 4 4 4 4 5 5 5 5 5 5 5 5 5 5 5 5 5 6 6 6 6 6 6 6
4 4 4 4 4 4 4 4 4 4 4 3 3 3 2 2 3 3 3 3 3 3 4 4 4 4 4 4 4 4 4 4 4 4 4 5 5 5 5 5 5 5 5
4 4 4 4 4 4 3 3 3 3 3 3 3 3 2 3 2 2 3 3 3 3 3 3 3 3 3 3 3 3 4 4 4 4 4 4 4 4 4 4 4 4 4
3 3 3 3 3 3 3 3 3 3 3 3 2 2 2 2 1 1 2 2 2 2 2 2 2 2 2 2 2 3 3 3 3 3 3 3 3 3 3 3 3 3 4
3 3 3 3 3 3 2 2 2 2 2 2 2 2 2 2 2 1 1 1 1 1 2 2 2 2 2 2 2 2 2 2 2 2 2 2 2 2 2 3 3 3 3
2 2 2 2 2 2 2 2 2 2 2 2 2 2 2 1 1 1 0 0 0 1 1 1 1 1 1 1 1 1 1 1 1 1 1 1 1 2 2 2 2 2 2
1 2 2 2 2 2 2 2 2 1 1 1 1 1 1 1 1 1 0 -0 -1 -0 0 1 1 0 1 0 1 1 1 1 1 1 1 1 1 1 1 1 1 1 2
1 1 1 1 1 1 1 1 1 1 1 1 1 1 0 0 0 0 0 -0 -1 -1 -1 -0 -0 0 -0 -0 0 0 0 0 0 0 0 0 1 1 1 1 1 1 1
1 1 1 1 1 1 1 1 1 0 0 0 0 0 -0 -0 -0 -0 -0 -1 -1 -1 -2 -1 -1 -0 -0 -0 -0 -0 -0 -0 -0 -0 -0 0 0 0 0 0 0 0 0
0 0 0 0 0 -0 -0 -0 -0 -0 -0 -0 -0 -0 -1 -1 -1 -1 -1 -1 -1 -1 -2 -1 -1 -1 -1 -1 -1 -1 -1 -1 -1 -1 -0 -0 -0 -0 -0 -0 -0 -0 -0
-0 -0 -0 -0 -0 -1 -1 -1 -1 -1 -1 -1 -1 -1 -1 -1 -1 -1 -2 -2 -2 -2 -2 -2 -2 -2 -2 -2 -2 -2 -2 -1 -1 -1 -1 -1 -1 -1 -1 -1 -1 -1 -1
-1 -1 -1 -1 -1 -1 -1 -2 -1 -1 -1 -1 -1 -1 -1 -2 -2 -2 -2 -2 -2 -2 -2 -2 -2 -2 -2 -2 -2 -2 -2 -2 -2 -2 -2 -2 -2 -2 -2 -2 -2 -2 -1
-2 -1 -1 -1 -2 -2 -2 -2 -2 -2 -2 -2 -2 -2 -2 -2 -2 -2 -2 -2 -2 -3 -3 -3 -3 -3 -3 -3 -3 -3 -3 -3 -3 -2 -2 -3 -3 -3 -2 -2 -2 -2 -2
-2 -2 -2 -2 -2 -2 -2 -2 -3 -2 -2 -2 -2 -2 -2 -2 -2 -2 -3 -3 -3 -3 -3 -3 -3 -3 -3 -3 -4 -4 -3 -3 -3 -3 -3 -3 -3 -3 -3 -3 -3 -3 -3
-3 -3 -3 -3 -3 -3 -3 -3 -3 -3 -3 -3 -3 -3 -3 -3 -3 -3 -3 -3 -3 -3 -4 -4 -4 -4 -4 -4 -4 -4 -4 -4 -4 -4 -4 -4 -4 -4 -3 -3 -3 -3 -3
-3 -3 -3 -3 -3 -3 -3 -3 -3 -4 -3 -3 -3 -3 -3 -3 -4 -4 -3 -3 -4 -4 -4 -4 -4 -4 -4 -4 -4 -4 -5 -5 -5 -4 -4 -4 -4 -4 -4 -4 -4 -4 -4
-4 -4 -4 -4 -4 -4 -4 -4 -4 -4 -4 -4 -4 -4 -4 -4 -4 -4 -4 -4 -4 -4 -4 -4 -4 -4 -4 -5 -5 -5 -5 -5 -5 -5 -5 -5 -5 -5 -5 -5 -4 -4 -4
-5 -5 -5 -5 -5 -4 -4 -4 -4 -5 -5 -5 -4 -4 -4 -4 -4 -5 -5 -5 -5 -5 -5 -5 -5 -5 -5 -5 -5 -5 -5 -5 -6 -5 -6 -6 -5 -5 -5 -5 -5 -5 -5
-6 -6 -6 -5 -5 -5 -5 -5 -5 -5 -5 -5 -5 -5 -5 -5 -5 -5 -5 -5 -5 -5 -5 -5 -5 -5 -5 -5 -5 -6 -6 -6 -6 -6 -6 -6 -6 -6 -6 -6 -5 -5 -5
-7 -7 -6 -6 -6 -6 -6 -6 -6 -6 -6 -6 -6 -6 -6 -6 -5 -6 -6 -6 -6 -6 -6 -6 -6 -6 -6 -6 -6 -6 -6 -6 -7 -7 -6 -7 -7 -7 -7 -6 -6 -6 -6
Wind_Speed
4 4 4 4 4 5 5 5 6 7 7 8 8 8 8 8 8 8 9 12 12 12 12 12 12 12 12 12 11 12 12 11 11 11 10 9 8 8 6 6 5 6 6
5 4 4 4 4 4 4 5 6 6 6 6 7 7 7 7 8 8 7 9 12 12 12 11 11 11 11 10 11 11 10 10 10 10 10 10 8 7 7 7 6 5 5
6 5 4 4 4 4 4 5 5 5 5 5 6 6 6 7 7 8 7 7 8 11 12 11 11 10 10 10 10 10 9 9 8 8 9 9 9 8 7 7 7 6 5
6 5 4 4 4 4 4 4 4 4 4 3 4 4 5 5 7 7 7 7 7 7 9 11 10 10 10 11 10 10 10 8 7 7 8 8 8 8 7 6 5 5 5
6 6 4 4 5 4 3 3 3 3 4 3 3 3 4 4 5 5 6 7 7 7 7 9 9 10 10 10 9 9 9 9 8 6 6 6 6 7 7 7 6 5 4
6 6 5 5 5 4 3 3 4 4 3 3 3 3 3 3 3 4 4 5 6 6 6 6 6 7 9 8 8 8 8 7 7 7 6 6 5 5 5 5 5 5 5
6 5 4 5 5 4 4 4 4 5 3 3 3 2 2 2 2 2 2 3 4 4 5 5 5 5 6 6 6 7 7 6 6 6 6 6 5 4 4 4 4 5 5
6 5 6 5 5 4 5 5 5 4 2 2 2 2 2 2 2 0 1 1 2 3 4 4 4 4 4 4 5 5 6 6 5 5 5 5 5 4 4 4 4 4 5
7 6 7 6 5 5 5 6 6 5 4 3 2 2 3 3 1 2 1 1 0 0 1 2 3 3 3 3 3 4 5 5 5 5 5 5 5 5 5 5 5 5 6
7 7 7 7 6 5 6 6 6 5 6 5 3 1 1 1 2 2 2 2 1 1 1 0 0 1 1 2 3 3 5 5 5 5 5 5 5 5 5 6 6 6 6
6 6 7 6 7 6 6 6 6 6 5 6 4 3 2 3 3 3 3 3 2 2 2 2 2 1 1 0 1 2 4 5 5 5 6 6 6 6 6 6 6 7 7
4 6 6 6 6 6 7 7 6 7 6 6 5 5 4 4 4 4 4 4 3 3 3 3 3 2 2 2 1 2 3 5 5 6 6 6 6 7 6 7 7 7 8
5 6 6 6 6 7 7 7 7 8 7 7 7 6 5 5 4 4 4 3 4 3 3 3 4 3 3 3 3 3 4 5 6 7 7 7 7 7 7 7 8 8 9
6 7 7 7 7 7 7 7 6 7 7 7 8 7 5 5 4 4 4 4 4 4 5 5 4 5 4 4 4 5 5 5 7 7 7 7 7 8 8 8 9 9 10
5 7 7 7 7 7 7 7 6 8 7 8 8 8 6 5 5 5 5 5 5 5 6 5 4 5 5 5 5 6 6 7 8 7 8 7 8 8 8 8 9 10 11
5 6 7 7 7 7 7 7 6 7 8 8 7 8 7 6 6 5 5 5 6 6 6 4 5 4 6 5 6 7 7 8 8 8 8 8 9 9 9 9 10 11 11
6 7 7 7 8 7 7 7 8 8 9 9 8 9 9 8 7 6 6 6 6 6 7 6 5 5 6 6 6 7 7 7 7 8 8 9 9 9 9 10 10 11 12
5 6 6 7 7 8 8 8 9 9 9 10 10 10 10 8 9 7 7 7 7 7 6 7 6 5 7 7 6 7 6 7 7 8 9 9 10 9 10 10 11 11 12
4 5 6 7 7 8 8 9 9 9 9 10 10 11 11 10 10 8 8 8 7 6 6 6 6 5 5 5 6 6 6 6 7 7 8 9 9 10 10 11 11 11 12
4 5 6 6 7 7 8 8 8 9 9 9 9 10 11 12 12 11 9 9 7 7 7 6 6 5 5 5 5 5 5 5 5 6 7 8 9 10 11 11 11 11 12
4 4 4 5 6 6 7 8 8 8 9 9 9 10 10 12 13 11 8 9 8 7 6 7 6 5 5 5 5 5 5 5 5 5 5 6 7 7 8 9 10 11 11
3 3 4 4 5 5 8 10 8 8 8 9 9 9 9 10 12 13 13 12 11 10 9 8 7 8 8 7 6 5 5 5 5 4 5 6 6 6 7 8 9 11 12
3 3 4 4 5 6 7 9 9 7 7 7 8 8 7 8 10 9 11 12 12 13 12 10 9 9 9 7 7 7 7 7 6 4 5 6 6 7 7 8 10 11 11
3 3 4 4 5 5 7 7 8 7 7 7 7 8 8 8 9 10 9 9 9 9 11 9 8 8 7 7 7 7 7 6 6 5 5 6 6 6 6 8 9 10 10
4 4 4 4 5 5 6 7 7 5 5 6 6 7 8 8 11 12 9 8 8 8 9 10 9 8 8 8 7 5 5 5 5 5 4 4 5 6 6 6 7 9 10
4 4 4 4 4 5 5 6 6 4 4 5 5 6 8 8 10 11 9 8 9 7 6 6 6 7 7 7 8 7 6 6 4 4 4 4 4 4 4 5 5 7 8
Wind_Direction
113 111 102 96 90 86 90 92 91 87 82 78 75 74 71 70 71 75 70 61 66 70 72 73 73 72 71 70 70 70 67 65 63 61 61 60 62 65 67 70 72 79 77
120 115 106 98 92 90 94 99 100 95 85 82 78 73 71 69 69 69 72 67 62 65 67 69 69 69 68 68 66 66 64 63 61 61 59 57 58 65 65 64 65 71 71
130 126 115 107 102 104 108 105 104 100 94 90 85 76 70 68 70 68 66 66 64 64 66 65 64 65 64 65 63 61 60 58 57 57 57 56 54 59 60 60 59 64 68
138 132 125 119 123 122 122 117 116 111 104 100 94 82 76 73 70 69 68 66 64 62 64 63 62 62 61 60 59 57 55 53 52 53 53 51 48 49 50 52 56 59 61
149 143 133 134 141 136 130 127 130 122 116 107 100 88 78 75 70 71 71 65 63 64 63 62 62 59 60 56 53 51 50 48 45 47 48 47 44 43 45 47 49 53 49
158 150 141 149 150 147 144 146 139 123 120 120 110 89 77 79 74 71 70 66 62 62 62 63 62 57 56 55 51 46 44 43 41 38 37 39 42 41 40 39 38 39 35
163 158 152 158 162 162 159 156 145 133 125 137 132 115 101 91 89 71 69 69 65 61 62 59 57 53 51 51 48 43 40 33 30 31 27 28 30 25 23 25 26 25 19
170 169 170 170 172 167 166 165 158 152 156 175 167 166 177 185 176 153 111 80 59 58 57 55 57 52 51 46 41 36 28 18 13 12 15 15 15 10 5 358 356 1 3
176 177 180 176 178 177 179 177 178 174 179 190 186 191 195 205 182 188 193 186 109 26 42 49 55 51 48 41 31 27 15 5 358 354 355 357 359 355 351 351 347 347 345
184 183 184 184 183 186 187 183 186 188 189 190 187 219 234 178 200 199 202 206 230 259 273 314 31 44 40 33 28 16 5 354 344 340 340 341 341 337 334 333 331 331 332
190 187 186 187 187 191 192 189 191 193 200 197 192 190 189 193 219 217 226 225 240 248 257 256 247 244 243 304 347 1 349 338 329 326 325 324 324 325 321 321 320 318 317
197 195 191 193 193 192 194 194 196 202 202 200 199 198 199 200 203 212 228 238 247 251 254 246 237 232 233 249 282 323 321 322 320 313 311 314 316 319 315 315 313 312 310
207 203 200 201 201 201 198 195 199 205 205 205 206 206 211 215 212 218 218 236 254 266 251 240 230 231 233 248 266 285 289 300 305 303 302 303 307 310 307 307 306 306 307
214 206 206 206 206 205 201 200 204 206 209 211 213 212 213 215 212 216 222 225 243 253 248 241 235 229 236 249 264 276 275 280 291 292 293 295 301 301 297 299 299 299 300
211 206 205 207 207 206 204 204 207 207 209 212 213 213 216 215 215 218 220 220 227 244 249 237 234 234 242 253 262 268 271 272 276 275 279 283 293 295 291 294 295 295 296
212 207 207 209 210 210 209 210 212 210 210 212 212 214 217 215 214 216 216 224 231 239 248 240 247 244 242 254 261 264 265 269 266 262 268 275 280 283 282 284 288 291 292
213 213 211 209 209 211 212 215 217 214 216 216 214 215 217 216 215 216 216 221 226 232 244 254 250 241 238 246 255 257 261 264 262 260 264 268 270 274 277 280 284 287 288
218 217 217 215 213 213 214 217 219 219 221 221 219 218 218 215 217 217 215 220 226 231 239 248 248 245 244 243 248 252 260 261 262 265 263 265 269 271 274 278 283 286 289
230 221 218 218 219 217 217 219 220 222 224 225 222 219 217 214 217 217 216 220 224 228 233 239 242 245 248 242 246 251 255 257 262 263 262 265 268 271 273 276 280 283 286
238 227 223 222 224 224 222 221 222 225 228 229 227 223 219 216 217 216 216 218 217 221 225 230 236 236 237 236 237 242 253 252 259 262 263 269 271 273 273 274 276 278 281
253 243 234 228 227 226 224 221 222 225 226 227 226 226 226 223 222 220 216 214 212 218 223 228 233 237 233 226 233 238 246 255 262 255 262 269 271 269 270 269 270 273 278
268 256 242 237 232 232 228 225 226 228 227 222 223 224 224 224 224 224 225 223 220 218 220 227 232 232 236 239 238 238 242 251 262 244 260 270 269 271 272 271 273 278 281
285 269 257 245 240 238 227 227 227 229 228 224 223 222 223 222 223 225 227 228 229 231 232 231 233 234 235 233 231 237 239 244 256 258 260 266 266 269 273 275 277 277 279
290 281 272 259 252 247 235 235 232 232 232 229 227 224 222 222 220 219 223 227 231 233 235 233 235 240 240 236 234 238 242 246 262 257 246 259 267 272 279 277 276 275 278
296 291 282 272 261 256 243 239 236 236 236 233 230 228 222 222 219 218 218 223 231 235 233 234 239 240 241 237 230 224 222 231 253 255 245 252 271 284 283 275 274 278 281
293 289 284 276 269 261 249 245 235 235 237 239 237 231 224 222 219 216 217 219 224 226 222 224 232 234 232 229 227 224 221 228 245 250 235 243 266 280 280 274 278 284 284
Height
1529 1530 1531 1531 1532 1533 1533 1535 1536 1537 1538 1539 1540 1541 1542 1543 1543 1544 1545 1546 1546 1547 1547 1548 1548 1548 1549 1549 1549 1549 1550 1550 1551 1551 1551 1552 1552 1552 1553 1553 1554 1555 1555
1527 1528 1529 1530 1531 1531 1532 1533 1534 1536 1537 1538 1539 1540 1541 1542 1542 1543 1544 1545 1545 1546 1547 1547 1547 1548 1548 1548 1548 1548 1549 1549 1550 1550 1550 1550 1551 1551 1552 1552 1553 1553 1554
1525 1526 1527 1528 1529 1530 1531 1532 1533 1534 1536 1537 1538 1539 1540 1540 1541 1542 1543 1543 1544 1545 1545 1546 1546 1546 1547 1547 1547 1547 1548 1548 1549 1549 1549 1549 1550 1550 1551 1551 1551 1552 1553
1523 1524 1525 1526 1527 1529 1530 1530 1532 1533 1534 1535 1536 1537 1538 1539 1540 1541 1541 1542 1542 1543 1543 1544 1544 1545 1545 1545 1546 1546 1546 1547 1547 1548 1548 1548 1549 1549 1549 1550 1550 1551 1551
1520 1522 1523 1524 1525 1527 1528 1529 1530 1531 1532 1533 1534 1535 1536 1537 1538 1539 1540 1540 1541 1541 1541 1542 1542 1543 1543 1544 1544 1544 1545 1545 1545 1546 1546 1546 1547 1547 1548 1548 1549 1549 1549
1517 1519 1520 1522 1523 1524 1525 1526 1528 1529 1530 1531 1532 1533 1534 1535 1536 1537 1538 1538 1539 1539 1539 1540 1540 1541 1541 1542 1542 1542 1543 1543 1543 1544 1544 1545 1545 1546 1546 1547 1547 1547 1547
1514 1516 1517 1519 1520 1521 1523 1524 1525 1526 1527 1528 1530 1531 1532 1533 1534 1535 1536 1536 1537 1537 1538 1538 1538 1539 1539 1539 1540 1540 1541 1541 1541 1542 1542 1543 1543 1543 1544 1545 1545 1545 1545
1511 1512 1514 1515 1517 1518 1520 1521 1522 1523 1524 1526 1527 1529 1531 1533 1532 1532 1533 1534 1534 1535 1535 1535 1536 1536 1536 1537 1537 1538 1538 1538 1539 1539 1540 1540 1540 1541 1541 1542 1542 1542 1542
1507 1509 1510 1512 1513 1515 1516 1517 1519 1520 1521 1523 1524 1527 1529 1529 1530 1530 1530 1531 1531 1532 1532 1533 1533 1533 1534 1534 1534 1535 1535 1536 1536 1537 1537 1538 1538 1538 1538 1539 1539 1539 1539
1503 1505 1506 1508 1509 1511 1512 1514 1515 1517 1519 1519 1521 1523 1525 1525 1527 1527 1528 1528 1528 1529 1529 1530 1530 1531 1531 1531 1531 1532 1532 1533 1533 1534 1534 1534 1535 1535 1535 1535 1536 1536 1536
1499 1500 1501 1503 1505 1506 1508 1510 1511 1513 1515 1516 1517 1519 1521 1522 1523 1524 1524 1525 1525 1526 1526 1526 1527 1527 1528 1528 1528 1528 1529 1529 1530 1530 1530 1531 1531 1531 1531 1532 1532 1532 1532
1494 1495 1497 1498 1500 1502 1504 1505 1507 1509 1510 1512 1514 1515 1517 1518 1519 1521 1521 1521 1521 1522 1522 1523 1523 1524 1524 1524 1525 1525 1525 1525 1526 1526 1526 1527 1527 1527 1527 1527 1527 1527 1528
1489 1490 1492 1493 1495 1497 1499 1501 1503 1504 1506 1508 1509 1511 1513 1514 1516 1517 1517 1517 1518 1518 1518 1519 1520 1520 1520 1521 1521 1521 1521 1521 1522 1522 1522 1523 1523 1522 1523 1523 1523 1523 1523
1484 1485 1487 1489 1490 1492 1494 1496 1498 1499 1501 1503 1505 1506 1508 1509 1511 1512 1513 1514 1514 1514 1515 1515 1515 1516 1516 1516 1517 1517 1517 1517 1517 1517 1518 1518 1518 1518 1518 1518 1518 1518 1518
1479 1481 1482 1483 1485 1487 1489 1491 1492 1494 1496 1497 1499 1501 1503 1504 1506 1507 1508 1510 1511 1511 1511 1510 1511 1511 1512 1512 1512 1512 1512 1513 1513 1513 1513 1513 1513 1513 1513 1513 1513 1513 1513
1474 1475 1476 1478 1480 1481 1483 1485 1486 1488 1490 1492 1493 1495 1497 1499 1500 1502 1503 1504 1506 1507 1506 1505 1506 1507 1507 1507 1508 1508 1508 1508 1508 1508 1508 1508 1508 1508 1508 1508 1508 1508 1507
1469 1470 1471 1472 1474 1475 1477 1479 1480 1482 1484 1485 1487 1489 1491 1493 1494 1496 1497 1499 1500 1501 1501 1500 1501 1502 1502 1502 1503 1503 1503 1503 1503 1503 1503 1503 1503 1503 1503 1503 1502 1502 1502
1463 1465 1466 1467 1468 1469 1471 1472 1474 1476 1477 1479 1481 1483 1484 1486 1488 1490 1491 1493 1494 1496 1496 1496 1496 1496 1497 1497 1497 1498 1498 1498 1498 1498 1497 1498 1497 1497 1497 1497 1497 1496 1496
1458 1459 1460 1461 1463 1464 1465 1467 1468 1469 1471 1472 1474 1476 1478 1480 1481 1483 1485 1487 1488 1490 1491 1491 1490 1491 1491 1492 1492 1493 1493 1493 1493 1493 1492 1492 1492 1492 1491 1491 1491 1490 1490
1454 1454 1455 1456 1457 1459 1460 1461 1462 1463 1464 1466 1467 1469 1471 1473 1475 1477 1478 1480 1482 1484 1485 1485 1485 1485 1486 1486 1487 1487 1487 1488 1488 1488 1487 1487 1487 1486 1486 1485 1485 1484 1484
1450 1450 1450 1451 1452 1453 1454 1455 1456 1457 1458 1459 1460 1462 1464 1466 1468 1470 1472 1474 1476 1477 1479 1479 1479 1480 1480 1481 1482 1482 1483 1483 1483 1483 1482 1482 1482 1481 1480 1480 1479 1478 1478
1445 1445 1446 1446 1447 1448 1449 1450 1451 1451 1452 1453 1454 1456 1457 1460 1462 1464 1466 1468 1470 1471 1473 1474 1474 1474 1474 1476 1476 1477 1478 1477 1477 1479 1478 1477 1477 1476 1475 1474 1474 1473 1472
1441 1441 1441 1442 1442 1444 1445 1445 1446 1446 1446 1447 1449 1450 1451 1453 1455 1457 1460 1462 1463 1465 1467 1468 1469 1469 1470 1470 1471 1472 1472 1472 1472 1472 1473 1471 1472 1471 1470 1469 1468 1467 1467
1438 1437 1437 1438 1438 1439 1440 1440 1441 1441 1442 1442 1443 1444 1446 1447 1449 1451 1453 1454 1456 1458 1460 1462 1463 1464 1465 1466 1466 1467 1467 1467 1467 1468 1468 1467 1466 1465 1464 1463 1463 1462 1461
1434 1434 1433 1434 1434 1434 1435 1436 1437 1436 1437 1437 1438 1439 1440 1441 1443 1446 1447 1448 1450 1451 1454 1456 1457 1458 1459 1460 1461 1461 1461 1462 1461 1462 1463 1462 1461 1460 1458 1458 1457 1457 1456
1431 1431 1430 1430 1430 1430 1431 1432 1432 1432 1432 1432 1433 1433 1434 1436 1438 1440 1441 1442 1444 1445 1447 1449 1451 1452 1453 1454 1455 1455 1455 1456 1456 1456 1457 1457 1456 1455 1454 1452 1452 1451 1450